Location: Arroyo Retuerta
(40.5469°N, 4.3534°W)
Time: 05:57:11
(UTC+00:00)

Resurs 1-3 - Pass Details

Date: 01 June 2020
Orbit: 629 x 632 km, 97.9° (Epoch: 05 July)

Event Time Altitude Azimuth Distance (km) Brightness Sun altitude
Exits shadow 20:52:09 - 179° (S) 2,332 6.1 -11.5°
Reaches altitude 10° 20:52:57 10° 181° (S) 2,007 5.8 -11.6°
Maximum altitude 20:57:15 56° 260° (W) 755 4.2 -12.2°
Drops below altitude 10° 21:01:35 10° 339° (NNW) 2,022 7.3 -12.8°
Sets 21:03:50 0° 343° (NNW) 2,934 8.2 -13.1°
